Time,TemperatureF,DewpointF,PressureIn,WindDirection,WindDirectionDegrees,WindSpeedMPH,WindSpeedGustMPH,Humidity,HourlyPrecipIn,Conditions,Clouds,dailyrainin,SoftwareType,DateUTC
2013-06-28 00:04:00,73.2,70.0,29.79,WNW,290,0.0,3.0,88,0.00,,,0.00,weatherlink.com 1.10,2013-06-28 05:04:00,
2013-06-28 00:19:00,72.8,70.0,29.78,NW,304,0.0,1.0,89,0.00,,,0.00,weatherlink.com 1.10,2013-06-28 05:19:00,
2013-06-28 00:34:00,72.2,69.0,29.78,NNE,23,1.0,2.0,90,0.00,,,0.00,weatherlink.com 1.10,2013-06-28 05:34:00,
2013-06-28 00:49:00,72.0,69.0,29.77,North,358,0.0,2.0,91,0.00,,,0.00,weatherlink.com 1.10,2013-06-28 05:49:00,
2013-06-28 01:04:00,71.5,69.0,29.77,WSW,238,2.0,3.0,92,0.00,,,0.00,weatherlink.com 1.10,2013-06-28 06:04:00,
2013-06-28 01:19:00,72.1,69.0,29.77,WNW,295,0.0,3.0,90,0.00,,,0.00,weatherlink.com 1.10,2013-06-28 06:19:00,
2013-06-28 01:34:00,71.7,69.0,29.76,ESE,111,1.0,1.0,91,0.00,,,0.00,weatherlink.com 1.10,2013-06-28 06:34:00,
2013-06-28 01:49:00,71.2,69.0,29.76,SSW,210,2.0,2.0,91,0.00,,,0.00,weatherlink.com 1.10,2013-06-28 06:49:00,
2013-06-28 02:05:00,70.7,68.0,29.77,SW,222,0.0,1.0,92,0.00,,,0.00,weatherlink.com 1.10,2013-06-28 07:05:00,
2013-06-28 02:20:00,70.5,68.0,29.77,SSE,163,0.0,1.0,93,0.00,,,0.00,weatherlink.com 1.10,2013-06-28 07:20:00,
2013-06-28 02:35:00,70.4,68.0,29.76,NE,50,0.0,2.0,93,0.00,,,0.00,weatherlink.com 1.10,2013-06-28 07:35:00,
2013-06-28 02:50:00,70.3,68.0,29.75,NNW,336,1.0,3.0,93,0.00,,,0.00,weatherlink.com 1.10,2013-06-28 07:50:00,
2013-06-28 03:05:00,70.2,68.0,29.75,WSW,245,0.0,2.0,93,0.00,,,0.00,weatherlink.com 1.10,2013-06-28 08:05:00,
2013-06-28 03:20:00,69.8,68.0,29.75,ESE,120,1.0,1.0,94,0.00,,,0.00,weatherlink.com 1.10,2013-06-28 08:20:00,
2013-06-28 03:35:00,69.6,68.0,29.75,NNW,343,0.0,2.0,94,0.00,,,0.00,weatherlink.com 1.10,2013-06-28 08:35:00,
2013-06-28 03:50:00,69.3,68.0,29.74,SE,124,1.0,2.0,94,0.00,,,0.00,weatherlink.com 1.10,2013-06-28 08:50:00,
2013-06-28 04:05:00,68.9,67.0,29.74,NW,326,0.0,2.0,94,0.00,,,0.00,weatherlink.com 1.10,2013-06-28 09:05:00,
2013-06-28 04:20:00,68.6,67.0,29.73,SW,230,0.0,1.0,95,0.00,,,0.00,weatherlink.com 1.10,2013-06-28 09:20:00,
2013-06-28 04:35:00,68.2,67.0,29.73,WNW,283,1.0,2.0,95,0.00,,,0.00,weatherlink.com 1.10,2013-06-28 09:35:00,
2013-06-28 04:50:00,68.0,67.0,29.73,West,276,0.0,3.0,95,0.00,,,0.00,weatherlink.com 1.10,2013-06-28 09:50:00,
2013-06-28 05:05:00,67.8,66.0,29.74,WSW,245,0.0,1.0,94,0.00,,,0.00,weatherlink.com 1.10,2013-06-28 10:05:00,
2013-06-28 05:20:00,67.3,66.0,29.75,WSW,241,0.0,1.0,95,0.00,,,0.00,weatherlink.com 1.10,2013-06-28 10:20:00,
2013-06-28 05:35:00,67.9,66.0,29.75,WSW,247,1.0,4.0,94,0.00,,,0.00,weatherlink.com 1.10,2013-06-28 10:35:00,
2013-06-28 05:50:00,67.8,66.0,29.75,ESE,120,0.0,1.0,93,0.00,,,0.00,weatherlink.com 1.10,2013-06-28 10:50:00,
2013-06-28 06:05:00,68.5,66.0,29.75,ESE,120,0.0,1.0,92,0.00,,,0.00,weatherlink.com 1.10,2013-06-28 11:05:00,
2013-06-28 06:20:00,69.8,67.0,29.76,ENE,68,0.0,2.0,89,0.00,,,0.00,weatherlink.com 1.10,2013-06-28 11:20:00,
2013-06-28 06:35:00,71.0,67.0,29.75,East,99,0.0,3.0,86,0.00,,,0.00,weatherlink.com 1.10,2013-06-28 11:35:00,
2013-06-28 06:50:00,71.8,67.0,29.75,ESE,109,0.0,4.0,84,0.00,,,0.00,weatherlink.com 1.10,2013-06-28 11:50:00,
2013-06-28 07:05:00,72.2,67.0,29.75,North,8,1.0,2.0,83,0.00,,,0.00,weatherlink.com 1.10,2013-06-28 12:05:00,
2013-06-28 07:20:00,72.2,67.0,29.76,SW,225,4.0,4.0,83,0.00,,,0.00,weatherlink.com 1.10,2013-06-28 12:20:00,
2013-06-28 07:35:00,72.4,67.0,29.75,ESE,119,1.0,4.0,83,0.00,,,0.00,weatherlink.com 1.10,2013-06-28 12:35:00,
2013-06-28 07:50:00,73.0,67.0,29.75,WSW,240,1.0,4.0,82,0.00,,,0.00,weatherlink.com 1.10,2013-06-28 12:50:00,
2013-06-28 08:05:00,73.6,67.0,29.75,South,169,1.0,4.0,81,0.00,,,0.00,weatherlink.com 1.10,2013-06-28 13:05:00,
2013-06-28 08:20:00,75.4,68.0,29.75,SSE,149,0.0,4.0,77,0.00,,,0.00,weatherlink.com 1.10,2013-06-28 13:20:00,
2013-06-28 08:35:00,76.8,68.0,29.75,West,281,1.0,4.0,75,0.00,,,0.00,weatherlink.com 1.10,2013-06-28 13:35:00,
2013-06-28 08:50:00,77.3,68.0,29.75,West,261,1.0,3.0,74,0.00,,,0.00,weatherlink.com 1.10,2013-06-28 13:50:00,
2013-06-28 09:05:00,77.4,68.0,29.75,NW,323,0.0,5.0,72,0.00,,,0.00,weatherlink.com 1.10,2013-06-28 14:05:00,
2013-06-28 09:20:00,78.7,69.0,29.75,WSW,238,2.0,3.0,71,0.00,,,0.00,weatherlink.com 1.10,2013-06-28 14:20:00,
2013-06-28 09:35:00,79.1,67.0,29.75,South,191,2.0,6.0,66,0.00,,,0.00,weatherlink.com 1.10,2013-06-28 14:35:00,
2013-06-28 09:50:00,80.8,68.0,29.74,West,266,1.0,3.0,66,0.00,,,0.00,weatherlink.com 1.10,2013-06-28 14:50:00,
2013-06-28 10:05:00,81.1,69.0,29.74,WNW,284,0.0,7.0,66,0.00,,,0.00,weatherlink.com 1.10,2013-06-28 15:05:00,
2013-06-28 10:20:00,81.0,67.0,29.73,West,274,2.0,6.0,63,0.00,,,0.00,weatherlink.com 1.10,2013-06-28 15:20:00,
2013-06-28 10:36:00,82.6,68.0,29.73,SW,233,2.0,4.0,61,0.00,,,0.00,weatherlink.com 1.10,2013-06-28 15:36:00,
2013-06-28 10:51:00,83.2,69.0,29.73,WSW,247,2.0,4.0,63,0.00,,,0.00,weatherlink.com 1.10,2013-06-28 15:51:00,
2013-06-28 11:06:00,83.0,66.0,29.73,SE,124,3.0,8.0,56,0.00,,,0.00,weatherlink.com 1.10,2013-06-28 16:06:00,
2013-06-28 11:21:00,83.2,67.0,29.73,WSW,252,1.0,8.0,58,0.00,,,0.00,weatherlink.com 1.10,2013-06-28 16:21:00,
2013-06-28 11:36:00,83.5,63.0,29.73,ENE,67,2.0,8.0,51,0.00,,,0.00,weatherlink.com 1.10,2013-06-28 16:36:00,
2013-06-28 11:51:00,83.3,65.0,29.73,ENE,63,2.0,10.0,55,0.00,,,0.00,weatherlink.com 1.10,2013-06-28 16:51:00,
2013-06-28 12:06:00,84.6,65.0,29.73,WNW,293,2.0,8.0,52,0.00,,,0.00,weatherlink.com 1.10,2013-06-28 17:06:00,
2013-06-28 12:21:00,84.5,61.0,29.72,NE,46,1.0,8.0,46,0.00,,,0.00,weatherlink.com 1.10,2013-06-28 17:21:00,
2013-06-28 12:36:00,84.3,61.0,29.73,WNW,291,5.0,10.0,46,0.00,,,0.00,weatherlink.com 1.10,2013-06-28 17:36:00,
2013-06-28 12:51:00,84.3,61.0,29.73,SSE,153,3.0,10.0,45,0.00,,,0.00,weatherlink.com 1.10,2013-06-28 17:51:00,
2013-06-28 13:06:00,84.1,61.0,29.72,West,281,6.0,11.0,45,0.00,,,0.00,weatherlink.com 1.10,2013-06-28 18:06:00,
2013-06-28 13:21:00,84.7,60.0,29.72,West,274,3.0,13.0,43,0.00,,,0.00,weatherlink.com 1.10,2013-06-28 18:21:00,
2013-06-28 13:36:00,84.8,60.0,29.71,South,189,2.0,10.0,43,0.00,,,0.00,weatherlink.com 1.10,2013-06-28 18:36:00,
2013-06-28 13:51:00,85.2,61.0,29.71,WNW,298,5.0,9.0,44,0.00,,,0.00,weatherlink.com 1.10,2013-06-28 18:51:00,
2013-06-28 14:06:00,84.9,61.0,29.71,SSW,197,3.0,15.0,44,0.00,,,0.00,weatherlink.com 1.10,2013-06-28 19:06:00,
2013-06-28 14:21:00,84.8,59.0,29.70,North,11,6.0,12.0,42,0.00,,,0.00,weatherlink.com 1.10,2013-06-28 19:21:00,
2013-06-28 14:36:00,84.8,59.0,29.70,SSE,167,3.0,12.0,42,0.00,,,0.00,weatherlink.com 1.10,2013-06-28 19:36:00,
2013-06-28 14:51:00,85.6,61.0,29.69,West,261,2.0,9.0,43,0.00,,,0.00,weatherlink.com 1.10,2013-06-28 19:51:00,
2013-06-28 15:06:00,85.5,59.0,29.69,West,267,3.0,9.0,41,0.00,,,0.00,weatherlink.com 1.10,2013-06-28 20:06:00,
2013-06-28 15:21:00,85.8,59.0,29.69,East,81,4.0,9.0,41,0.00,,,0.00,weatherlink.com 1.10,2013-06-28 20:21:00,
2013-06-28 15:36:00,85.2,58.0,29.68,SW,236,5.0,12.0,40,0.00,,,0.00,weatherlink.com 1.10,2013-06-28 20:36:00,
2013-06-28 15:51:00,84.9,58.0,29.68,NNE,25,14.0,14.0,40,0.00,,,0.00,weatherlink.com 1.10,2013-06-28 20:51:00,
2013-06-28 16:06:00,85.2,60.0,29.68,NW,326,6.0,14.0,42,0.00,,,0.00,weatherlink.com 1.10,2013-06-28 21:06:00,
2013-06-28 16:21:00,85.0,59.0,29.68,West,263,5.0,14.0,41,0.00,,,0.00,weatherlink.com 1.10,2013-06-28 21:21:00,
2013-06-28 16:36:00,85.1,59.0,29.67,WNW,290,9.0,12.0,41,0.00,,,0.00,weatherlink.com 1.10,2013-06-28 21:36:00,
2013-06-28 16:51:00,84.6,60.0,29.67,West,280,4.0,11.0,44,0.00,,,0.00,weatherlink.com 1.10,2013-06-28 21:51:00,
2013-06-28 17:06:00,83.8,58.0,29.67,NNW,337,3.0,10.0,42,0.00,,,0.00,weatherlink.com 1.10,2013-06-28 22:06:00,
2013-06-28 17:21:00,84.3,59.0,29.66,WSW,257,5.0,11.0,43,0.00,,,0.00,weatherlink.com 1.10,2013-06-28 22:21:00,
2013-06-28 17:36:00,84.2,58.0,29.66,North,9,4.0,13.0,41,0.00,,,0.00,weatherlink.com 1.10,2013-06-28 22:36:00,
2013-06-28 17:51:00,84.2,57.0,29.65,WNW,294,4.0,11.0,40,0.00,,,0.00,weatherlink.com 1.10,2013-06-28 22:51:00,
2013-06-28 18:06:00,84.0,57.0,29.65,WSW,242,4.0,10.0,40,0.00,,,0.00,weatherlink.com 1.10,2013-06-28 23:06:00,
2013-06-28 18:21:00,83.8,58.0,29.64,WSW,245,2.0,9.0,41,0.00,,,0.00,weatherlink.com 1.10,2013-06-28 23:21:00,
2013-06-28 18:36:00,83.6,57.0,29.64,ENE,75,3.0,10.0,41,0.00,,,0.00,weatherlink.com 1.10,2013-06-28 23:36:00,
2013-06-28 18:51:00,82.7,57.0,29.64,NW,304,2.0,7.0,41,0.00,,,0.00,weatherlink.com 1.10,2013-06-28 23:51:00,
2013-06-28 19:06:00,81.4,57.0,29.64,NW,307,2.0,6.0,43,0.00,,,0.00,weatherlink.com 1.10,2013-06-29 00:06:00,
2013-06-28 19:21:00,81.0,57.0,29.64,WSW,248,4.0,9.0,44,0.00,,,0.00,weatherlink.com 1.10,2013-06-29 00:21:00,
2013-06-28 19:36:00,80.7,58.0,29.65,NW,317,1.0,9.0,46,0.00,,,0.00,weatherlink.com 1.10,2013-06-29 00:36:00,
2013-06-28 19:51:00,81.1,58.0,29.65,NNW,347,3.0,8.0,46,0.00,,,0.00,weatherlink.com 1.10,2013-06-29 00:51:00,
2013-06-28 20:06:00,80.5,58.0,29.65,SSW,211,7.0,9.0,47,0.00,,,0.00,weatherlink.com 1.10,2013-06-29 01:06:00,
2013-06-28 20:21:00,79.6,58.0,29.66,ENE,61,2.0,8.0,48,0.00,,,0.00,weatherlink.com 1.10,2013-06-29 01:21:00,
2013-06-28 20:51:00,77.7,59.0,29.66,West,272,0.0,3.0,52,0.00,,,0.00,weatherlink.com 1.10,2013-06-29 01:51:00,
2013-06-28 21:06:00,77.0,59.0,29.66,SE,134,1.0,3.0,54,0.00,,,0.00,weatherlink.com 1.10,2013-06-29 02:06:00,
2013-06-28 21:22:00,75.2,60.0,29.66,SE,134,1.0,1.0,60,0.00,,,0.00,weatherlink.com 1.10,2013-06-29 02:22:00,
2013-06-28 21:36:00,74.0,60.0,29.66,SE,134,0.0,1.0,61,0.00,,,0.00,weatherlink.com 1.10,2013-06-29 02:36:00,
2013-06-28 21:52:00,73.2,60.0,29.66,SE,134,0.0,1.0,64,0.00,,,0.00,weatherlink.com 1.10,2013-06-29 02:52:00,
2013-06-28 22:07:00,72.6,60.0,29.66,SE,134,0.0,1.0,65,0.00,,,0.00,weatherlink.com 1.10,2013-06-29 03:07:00,
2013-06-28 22:22:00,71.5,61.0,29.67,SE,134,0.0,1.0,69,0.00,,,0.00,weatherlink.com 1.10,2013-06-29 03:22:00,
2013-06-28 22:37:00,70.8,62.0,29.66,SE,134,0.0,0.0,73,0.00,,,0.00,weatherlink.com 1.10,2013-06-29 03:37:00,
2013-06-28 22:52:00,70.5,61.0,29.66,SE,134,0.0,1.0,73,0.00,,,0.00,weatherlink.com 1.10,2013-06-29 03:52:00,
2013-06-28 23:07:00,70.1,61.0,29.66,SE,134,1.0,1.0,72,0.00,,,0.00,weatherlink.com 1.10,2013-06-29 04:07:00,
2013-06-28 23:22:00,70.2,61.0,29.66,WSW,250,1.0,3.0,73,0.00,,,0.00,weatherlink.com 1.10,2013-06-29 04:22:00,
2013-06-28 23:37:00,70.3,61.0,29.66,WSW,252,1.0,2.0,72,0.00,,,0.00,weatherlink.com 1.10,2013-06-29 04:37:00,
2013-06-28 23:52:00,69.5,61.0,29.66,East,95,0.0,1.0,74,0.00,,,0.00,weatherlink.com 1.10,2013-06-29 04:52:00,